Skip Page Navigation
NASA JPL Caltech
NASA Logo - Jet Propulsion Laboratory + View the NASA Portal
+ Center for Near-Earth Object Studies
JPL Home Earth Solar System Stars & Galaxies Technology
JPL Solar System Dynamics
BODIES ORBITS EPHEMERIDES TOOLS PHYSICAL DATA DISCOVERY FAQ SITE MAP
JPL Small-Body Database Browser
Search: [ help ]  
(2013 KT1)
Classification: Aten [NEO]          SPK-ID: 3638577
Ephemeris | Orbit Diagram | Orbital Elements | Mission Design | Physical Parameters | Close-Approach Data ]

[ show orbit diagram ]
Orbital Elements at Epoch 2459000.5 (2020-May-31.0) TDB
Reference: JPL 9 (heliocentric ecliptic J2000)
 Element Value Uncertainty (1-sigma)   Units 
e .1638187897454419 5.8158e-05  
a .9232839384686726 1.557e-05 au
q .7720326810773297 6.6504e-05 au
i 8.107741733344733 0.0034549 deg
node 58.84161329418502 0.00012075 deg
peri 317.3604991568706 0.0026565 deg
M 210.1050460094442 0.086637 deg
tp 2459135.422959937059
(2020-Oct-12.92295994)
0.081393 TDB
period 324.0420326650986
0.89
0.008197
2.244e-05
d
yr
n 1.110966984866634 2.8103e-05 deg/d
Q 1.074535195860016 1.8121e-05 au
  Orbit Determination Parameters
   # obs. used (total)      108  
   data-arc span      2 days  
   first obs. used      2013-05-18  
   last obs. used      2013-05-20  
   planetary ephem.      DE431  
   SB-pert. ephem.      SB431-N16  
   condition code      5  
   norm. resid. RMS      .26247  
   source      ORB  
   producer      Otto Matic  
   solution date      2017-Apr-06 08:45:45  

Additional Information
 Earth MOID = .00690215 au 
 Jupiter MOID = 4.18534 au 
 T_jup = 6.458 
[ show covariance matrix ]

Ephemeris | Orbit Diagram | Orbital Elements | Mission Design | Physical Parameters | Close-Approach Data ]

Physical Parameter Table
Parameter Symbol Value Units Sigma Reference Notes
absolute magnitude H 26.6   n/a MPO263303  

[ show close-approach data ]
Ephemeris | Orbit Diagram | Orbital Elements | Mission Design | Physical Parameters | Close-Approach Data ]
ABOUT SSD CREDITS/AWARDS PRIVACY/COPYRIGHT GLOSSARY LINKS
FirstGov 2020-Nov-30 00:37 UT
(server date/time)  
NASA Home Page
Site Manager:   Ryan S. Park
Webmaster  Alan B. Chamberlin